Regional Weather Roundup
Issued by NWS

Home | Current Version | Previous Version | Graphics & Text | Print | Product List | Glossary On
Versions: 1 2 3 4 5 6 7 8 9 10 11 12 13 14 15 16 17 18 19 20 21 22 23 24 25 26 27 28 29 30 31 32 33 34 35 36 37 38 39 40 41 42 43 44 45 46 47 48 49 50
000
ASUS43 KOAX 031702
RWRNE

WEATHER ROUNDUP FOR NEBRASKA
NATIONAL WEATHER SERVICE OMAHA NE
1200 PM CDT THU SEP 03 2015

NOTES: SATELLITE DATA IS BEING USED TO AUGMENT CLOUD COVER ABOVE
       12000 FEET.
       "FAIR" INDICATES FEW OR NO CLOUDS BELOW 12,000 FEET WITH NO
       SIGNIFICANT WEATHER AND/OR OBSTRUCTIONS TO VISIBILITY.

  * THESE STATIONS DO NOT REPORT WEATHER SUCH AS RAIN...SNOW OR FOG.

NEZ001>004-019>022-054>056-031800-
NEBRASKA PANHANDLE

CITY           SKY/WX    TMP DP  RH WIND       PRES   REMARKS
SCOTTSBLUFF    MOSUNNY   85  53  33 CALM      29.92S
ALLIANCE       MOSUNNY   86  47  25 CALM      29.90F
CHADRON        SUNNY     92  48  22 VRB3      29.84S
KIMBALL        PTSUNNY   83  46  27 CALM      29.99R
SIDNEY         MOSUNNY   90  46  21 VRB5      29.95S
$$

NEZ057>060-069>072-079>082-031800-
SOUTHWEST NEBRASKA

CITY           SKY/WX    TMP DP  RH WIND       PRES   REMARKS
NORTH PLATTE   PTSUNNY   83  62  49 SE5       29.84S
IMPERIAL       MOSUNNY   87  61  41 VRB3      29.86F
LEXINGTON      MOSUNNY   83  64  52 S7        29.84S
MC COOK        MOSUNNY   88  60  38 VRB3      29.83S
OGALLALA       MOSUNNY   87  57  35 CALM      29.87S
$$

NEZ005>010-023>029-035>040-094-031800-
NORTH CENTRAL NEBRASKA

CITY           SKY/WX    TMP DP  RH WIND       PRES   REMARKS
VALENTINE      SUNNY     95  50  21 SE15      29.82S HX  92
AINSWORTH      SUNNY     91  64  40 SE9       29.83F HX  93
BROKEN BOW     SUNNY     85  64  49 SE6       29.84S
O`NEILL        SUNNY     84  67  56 S6        29.83S
ORD            SUNNY     86  63  45 S7        29.81F
THEDFORD       SUNNY     89  63  41 SE5       29.86S HX  90
$$

NEZ041-046>049-061>064-073>077-083>087-031800-
SOUTH CENTRAL NEBRASKA

CITY           SKY/WX    TMP DP  RH WIND       PRES   REMARKS
GRAND ISLAND   SUNNY     87  63  44 S10       29.85S
AURORA         SUNNY     86  64  47 S9        29.84F
HASTINGS       SUNNY     87  63  44 S10G18    29.84S
HEBRON         SUNNY     87  61  41 S14       29.85F
HOLDREGE       MOSUNNY   85  60  42 S12       29.84S
KEARNEY *      SUNNY     84  63  48 S13       29.84S
YORK           SUNNY     84  66  54 S8        29.85S
$$

NEZ011>018-030>034-042>045-031800-
NORTHEAST NEBRASKA

CITY           SKY/WX    TMP DP  RH WIND       PRES   REMARKS
NORFOLK        SUNNY     83  68  60 S10       29.83F
ALBION         SUNNY     82  66  59 SE7       29.84S
BLAIR          FAIR      82  68  62 S9        29.87F
COLUMBUS *     SUNNY     84  66  54 S8        29.84S
FREMONT        SUNNY     85  69  58 SE10      29.86S
TEKAMAH        SUNNY     85  70  60 S10       29.85F
$$

NEZ050>053-065>068-078-088>093-031800-
SOUTHEAST NEBRASKA

CITY           SKY/WX    TMP DP  RH WIND       PRES   REMARKS
LINCOLN        SUNNY     88  67  49 S14       29.86R HX  91
OMAHA EPPLEY   MOSUNNY   85  69  58 SE14      29.86F
BEATRICE       SUNNY     87  66  50 S14G24    29.86F
FALLS CITY     SUNNY     88  68  51 S14       29.89F HX  91
NEBRASKA CITY  SUNNY     87  60  41 S14       29.88S
PLATTSMOUTH    SUNNY     84  67  57 S12       29.88S
$$

NEZ044-045-051>053-067-031800-
OMAHA AREA

CITY           SKY/WX    TMP DP  RH WIND       PRES   REMARKS
EPPLEY FIELD   MOSUNNY   85  69  58 SE14      29.86F
BLAIR          SUNNY     82  68  62 S9        29.87F
FREMONT        SUNNY     85  69  58 SE10      29.86S
MILLARD        SUNNY     84  70  64 SE9       29.86F
OFFUTT AFB     SUNNY     85  69  58 S13       29.86F
PLATTSMOUTH    SUNNY     84  67  57 S12       29.88S
WAHOO          FAIR      85  69  57 S9        29.85S
$$



USA.gov is the U.S. government's official web portal to all federal, state and local government web resources and services.